Location: Arpeix
(45.8510°N, 1.9375°E)
Time: 00:58:26
(UTC+00:00)

Daily predictions for brighter satellites

Satellite Brightness Start Highest point End
(mag) Time Altitude Azimuth Time Altitude Azimuth Time Altitude Azimuth
Cosmos 2227 Rocket 2.3 00:05:20 42° S 00:07:09 63° ESE 00:12:46 10° NNE
Cosmos 304 Rocket 4.3 00:06:24 32° WSW 00:08:14 51° WNW 00:12:53 10° NNE
Cosmos 1892 2.3 00:09:05 86° W 00:09:06 86° W 00:12:38 10° N
Cosmos 990 Rocket 4.4 00:08:24 38° SE 00:09:42 46° ESE 00:14:37 10° NNE
Cosmos 773 Rocket 4.4 00:05:14 10° NNW 00:10:08 46° WSW 00:11:17 39° SW
Cosmos 332 Rocket 3.7 00:09:47 49° S 00:11:03 78° ESE 00:15:58 10° NNE
SL-12 R/B(2) 4.4 00:09:27 32° S 00:13:19 59° ESE 00:22:36 10° NE
CENTAUR R/B 2.7 00:12:18 39° SSE 00:14:04 52° ESE 00:20:39 10° NE
Cosmos 2181 Rocket 4.1 00:08:25 10° NNW 00:14:31 63° W 00:16:56 37° SSW
Cosmos 1980 3.9 00:09:30 10° NW 00:15:02 55° WSW 00:16:42 41° SSW
GEOS 3 Rocket 3.5 00:14:58 10° NE 00:20:10 81° SE 00:22:03 40° SSW
Cosmos 1975 Rocket 4.4 00:21:39 25° ESE 00:22:56 29° E 00:26:43 10° NNE
H-2A R/B 2.3 00:18:50 10° N 00:23:02 59° WNW 00:24:02 45° SW
Cosmos 1777 Rocket 4.5 00:21:13 31° SW 00:23:30 55° WNW 00:28:43 10° NNE
Cosmos 1538 Rocket 4.3 00:19:19 10° NNW 00:24:29 62° ENE 00:27:12 28° SE
SL-4 R/B 2.0 00:22:09 10° WNW 00:26:14 61° SSW 00:26:25 60° SSW
Cosmos 2074 Rocket 4.0 00:24:31 37° SSW 00:27:10 79° W 00:33:25 10° N
Cosmos 2297 Rocket 2.8 00:24:22 26° WSW 00:27:23 52° WNW 00:32:55 10° NNE
Cosmos 2151 Rocket 4.1 00:24:16 10° NNW 00:28:26 43° W 00:29:10 39° WSW
Cosmos 2219 3.5 00:27:36 37° SSE 00:29:28 52° ESE 00:34:55 10° NE
NOSS 8 (A) 4.3 00:26:52 10° NW 00:29:54 79° NE 00:30:08 73° ESE
Cosmos 1174 3.9 00:25:07 10° NW 00:29:56 63° WSW 00:30:27 57° SSW
Cosmos 2084 Rocket 3.6 00:29:51 41° WSW 00:31:10 66° NW 00:35:18 10° NE
Okean 2 Rocket 3.7 00:31:01 10° NNW 00:35:13 41° W 00:36:03 37° WSW
Cosmos 1455 Rocket 3.5 00:31:35 10° N 00:35:58 55° ENE 00:37:36 35° SE
Aureole 1 Rocket 3.2 00:38:34 41° ESE 00:38:56 43° ESE 00:42:56 10° NNE
Cosmos 1825 2.9 00:42:47 33° W 00:43:01 34° WNW 00:46:11 10° N
ADEOS II 4.5 00:44:44 10° ENE 00:46:49 12° E 00:48:53 10° ESE
Cosmos 1025 Rocket 3.0 00:50:34 48° SSW 00:51:41 71° W 00:56:01 10° N
CRYOSAT 2 4.4 00:51:12 10° N 00:56:07 71° E 00:58:05 36° S
BREEZE-M DEB (TANK) 1.9 00:52:24 10° WNW 00:58:07 83° SSW 00:58:59 42° ESE
NOSS 3-2 (A) 3.2 00:56:57 38° SSW 00:58:59 68° ESE 01:05:00 10° NE
Resurs 1-4 Rocket 3.7 00:55:34 10° NE 00:59:54 25° E 01:03:09 15° SE
Cosmos 1937 Rocket 4.2 00:58:06 29° SSE 01:00:19 44° ESE 01:05:17 10° NNE
Cosmos 2263 Rocket 2.3 00:58:49 35° S 01:01:08 66° ESE 01:06:40 10° NNE
TIMED 4.4 01:01:12 47° S 01:02:24 82° ESE 01:06:45 10° NNE
CZ-4C R/B 3.7 00:58:14 10° W 01:02:29 30° NNW 01:07:41 10° NNE
Cosmos 1606 3.7 00:59:13 10° N 01:02:35 37° ENE 01:04:04 25° SE
Elektron 3 4.3 00:57:30 10° NW 01:02:59 69° SW 01:03:50 48° S
Cosmos 1898 Rocket 3.6 01:01:19 35° S 01:03:22 64° ESE 01:08:30 10° NNE
Nadezhda 3 Rocket 4.2 00:57:15 10° NNW 01:03:23 57° W 01:06:11 31° SSW
NOSS 3-2 (C) 4.1 01:03:08 26° SSE 01:05:07 34° ESE 01:10:23 10° NE
Cosmos 2218 Rocket 4.5 01:04:28 23° SSE 01:08:14 54° E 01:14:15 10° NNE
MOZ.5/SAFIR/RUBIN 5/SL-8 4.1 01:05:47 24° SSE 01:08:28 64° ENE 01:13:04 10° N
Helios 1A Rocket 2.6 01:12:04 49° S 01:12:59 74° WSW 01:16:48 10° NNW
BlueWalker 3 4.0 01:09:52 10° WNW 01:13:06 27° N 01:16:22 10° NE
Cosmos 1461 3.3 01:14:31 37° SSE 01:15:23 43° ESE 01:19:06 10° NE
Cosmos 2366 rocket 4.3 01:11:40 25° SSE 01:15:27 64° E 01:21:38 10° NNE
BREEZE-M DEB (TANK) 3.1 01:22:37 10° WNW 01:25:57 24° SE 01:27:32 10° ESE
MSX 4.3 01:24:03 10° NNE 01:29:40 53° E 01:33:23 21° S
In-Cosmos 22 Rocket 4.4 01:29:58 29° SSW 01:33:00 66° WNW 01:38:50 10° N
Cosmos 1680 Rocket 3.5 01:29:41 10° NNW 01:34:54 81° ENE 01:39:26 14° SSE
Cosmos 1818 3.6 01:30:17 10° NW 01:35:49 88° NE 01:41:16 10° SE
Cosmos 2112 Rocket 4.2 01:31:51 10° NNW 01:37:02 72° ENE 01:42:11 10° SSE
SL-16 R/B 3.9 01:32:39 10° SE 01:38:19 38° ENE 01:44:00 10° N
SL-16 R/B 2.7 01:33:18 10° NW 01:38:37 42° WSW 01:41:09 27° SSW
Cosmos 2237 Rocket 4.2 01:43:51 10° W 01:45:01 11° W 01:45:46 10° WSW
Cosmos 1869 3.2 01:41:43 10° NNW 01:45:22 60° W 01:46:40 35° SSW
SL-8 Rocket 4.1 01:43:18 25° SSW 01:47:00 67° W 01:53:11 10° N
Cosmos 1544 Rocket 3.5 01:43:08 10° NNW 01:47:34 71° W 01:49:57 27° S
Cosmos 2082 4.0 01:45:35 24° SW 01:48:58 59° WNW 01:54:33 10° NNE
Cosmos 2227 Rocket 3.8 01:47:07 10° WSW 01:51:39 25° NW 01:56:18 10° N
IDEFIX/ARIANE 42P 2.5 01:46:39 10° NNE 01:51:56 89° WNW 01:55:13 24° SSW
Cosmos 2228 2.9 01:48:48 10° N 01:53:08 83° W 01:55:50 22° S
Cosmos 1943 3.2 01:48:07 10° NNW 01:53:47 86° ENE 01:59:24 10° SSE
Cosmos 1437 Rocket 3.4 01:53:28 20° SSE 01:55:48 47° E 01:59:28 10° NNE
CZ-2C R/B 2.6 01:51:20 15° SSE 01:55:49 89° WSW 02:01:15 10° NNW
CZ-2C R/B 3.4 01:51:36 10° NNE 01:57:01 62° E 02:00:50 18° S
CZ-2D R/B 2.2 01:54:38 10° NNE 02:00:01 77° ESE 02:03:47 20° S
Cosmos 1975 Rocket 4.4 01:58:43 20° WSW 02:00:41 27° WNW 02:04:27 10° NNW
FENGYUN 3A 4.2 01:57:02 10° NNE 02:02:19 54° E 02:06:47 14° S
CENTAUR R/B 3.6 01:59:25 10° WSW 02:04:57 40° NW 02:11:47 10° NNE
Cosmos 1727 Rocket 4.1 01:58:47 10° N 02:05:09 86° E 02:11:31 10° S
H-2A R/B 3.5 02:05:49 10° N 02:09:46 62° WNW 02:12:02 24° SSW
USA 238 DEB 3.8 02:06:34 19° SSW 02:10:59 58° ESE 02:17:31 10° NE
USA 238 3.9 02:06:36 19° SSW 02:11:01 58° ESE 02:17:34 10° NE
NPP 3.9 02:11:07 10° N 02:16:25 59° WNW 02:20:17 19° SW
ASTEX 1 3.7 02:15:17 10° SSE 02:20:05 67° E 02:24:56 10° N
Cosmos 1867 3.8 02:18:38 18° SSW 02:22:40 65° ESE 02:28:06 10° NE
Cosmos 2227 4.3 02:18:50 19° SSW 02:23:06 80° WNW 02:28:54 10° NNE
Cosmos 1606 Rocket 3.7 02:18:40 10° N 02:23:09 75° E 02:27:32 10° SSE
Cosmos 921 Rocket 3.1 02:21:06 10° NNW 02:25:22 76° ENE 02:29:32 10° SSE
ADEOS II 2.1 02:21:54 10° NNE 02:27:11 89° ESE 02:31:42 14° SSW
Cosmos 494 Rocket 4.0 02:23:33 10° NNW 02:28:49 90° WSW 02:34:04 10° SSE
Cosmos 1536 Rocket 4.0 02:27:09 19° SW 02:30:06 48° WNW 02:34:24 10° N
Cosmos 1844 4.0 02:27:53 14° S 02:32:53 65° ESE 02:38:38 10° NNE
Cosmos 1726 Rocket 3.7 02:34:17 10° N 02:38:45 81° E 02:43:10 10° S
Resurs 1-4 Rocket 2.6 02:34:51 10° N 02:39:54 47° WNW 02:44:12 14° SW
Cosmos 2263 Rocket 3.8 02:41:05 10° W 02:45:32 24° NW 02:50:00 10° N
Iridium 4 Rocket 4.1 02:43:11 10° N 02:47:30 50° E 02:52:09 10° SSE
Cosmos 1821 Rocket 4.5 02:46:05 13° SW 02:51:11 44° WNW 02:57:03 10° N
BlueWalker 3 3.9 02:48:40 10° NW 02:52:02 30° NNE 02:55:24 10° ENE
Cosmos 1461 4.5 02:50:29 10° W 02:53:42 23° NW 02:56:53 10° NNE
Cosmos 1812 2.7 02:50:14 10° N 02:53:49 74° E 02:57:22 10° SSE
Cosmos 2058 3.5 02:49:58 10° S 02:53:54 54° E 02:57:54 10° NNE
USA 267 3.4 02:49:00 10° NE 02:55:33 71° SE 03:02:00 10° SW
NOSS 3-2 (C) 4.0 02:50:33 10° WSW 02:55:42 46° NW 03:01:50 10° NNE
BREEZE M DEB (TANK) 4.5 02:43:36 10° WNW 02:57:45 72° N 03:01:45 10° E
AQUA 4.1 02:54:34 10° N 02:59:13 56° WNW 03:03:49 10° SSW
UNK 3.7 02:55:52 10° SSE 03:00:29 81° WSW 03:05:06 10° NNW
Cosmos 1607 4.0 02:54:30 10° NW 03:00:56 77° WSW 03:07:12 10° SSE
SAR-Lupe-4 3.5 02:58:16 10° NNE 03:01:51 84° WNW 03:05:24 10° SSW
Cosmos 1844 Rocket 2.8 02:59:23 11° SW 03:04:44 65° WNW 03:10:17 10° NNE
Cosmos 1605 Rocket 4.4 03:01:13 10° S 03:07:21 68° E 03:13:26 10° NNE
YAOGAN 6 4.2 03:06:48 10° NE 03:09:38 28° E 03:12:25 10° SSE
Iridium 2 3.2 03:08:17 11° SSW 03:10:32 39° W 03:12:54 10° N
ALOS 2.5 03:08:54 10° N 03:13:24 55° WNW 03:17:54 10° SSW
Cosmos 2058 Rocket 3.1 03:11:50 10° NNW 03:16:16 78° W 03:20:39 10° S
Cosmos 1892 Rocket 3.9 03:14:51 10° SSW 03:19:07 50° WNW 03:23:27 10° N
Meteor 1-28 Rocket 4.5 03:19:05 10° SW 03:21:50 21° W 03:24:36 10° NW
SL-16 R/B 3.0 03:15:59 10° SSW 03:21:50 41° W 03:27:42 10° NNW
Cosmos 2123 Rocket 4.3 03:20:13 10° NNW 03:26:08 49° W 03:32:04 10° SSW
